• In United Kingdom
  • List of Countries
  • For 7 days
  • Water Temperature
  • Satellite Maps
  • Weather Map
  • Weather Widgets
  • user-avatar
    Login

    Hourly Weather Bouake

    Today, 16 December, Saturday

    Time Temperature Precipitation Wind Pressure Humidity
    00:00 +27°C° 0 mm 1 mps 729 mmHg 66%
    01:00 +27°C° 0 mm 1 mps 729 mmHg 71%
    02:00 +26°C° 0 mm 1 mps 728 mmHg 75%
    03:00 +26°C° 0 mm 1 mps 728 mmHg 80%
    04:00 +25°C° 0 mm 1 mps 728 mmHg 82%
    05:00 +25°C° 0 mm 1 mps 728 mmHg 84%
    06:00 +25°C° 0 mm 1 mps 729 mmHg 86%
    07:00 +26°C° 0 mm 1 mps 729 mmHg 79%
    08:00 +28°C° 0 mm 1 mps 730 mmHg 71%
    09:00 +30°C° 0 mm 2 mps 730 mmHg 63%
    10:00 +32°C° 0 mm 1 mps 730 mmHg 53%
    11:00 +35°C° 0 mm 1 mps 730 mmHg 44%
    12:00 +39°C° 0 mm 1 mps 730 mmHg 34%
    13:00 +39°C° 0 mm 1 mps 729 mmHg 32%
    14:00 +39°C° 0 mm 1 mps 728 mmHg 30%
    15:00 +37°C° 0 mm 1 mps 728 mmHg 28%
    16:00 +36°C° 0 mm 1 mps 728 mmHg 31%
    17:00 +35°C° 0 mm 1 mps 728 mmHg 33%
    18:00 +35°C° 0 mm 2 mps 728 mmHg 35%
    19:00 +32°C° 0 mm 2 mps 728 mmHg 39%
    20:00 +31°C° 0 mm 2 mps 729 mmHg 43%
    21:00 +30°C° 0 mm 2 mps 730 mmHg 47%
    22:00 +29°C° 0 mm 2 mps 730 mmHg 52%
    23:00 +29°C° 0 mm 2 mps 730 mmHg 58%

    Tomorrow, 17 December, Sunday

    Time Temperature Precipitation Wind Pressure Humidity
    00:00 +28°C° 0 mm 2 mps 730 mmHg 64%
    01:00 +27°C° 0 mm 2 mps 729 mmHg 67%
    02:00 +27°C° 0 mm 2 mps 729 mmHg 70%
    03:00 +27°C° 0 mm 2 mps 729 mmHg 73%
    04:00 +26°C° 0 mm 1 mps 729 mmHg 75%
    05:00 +26°C° 0 mm 1 mps 729 mmHg 77%
    06:00 +26°C° 0 mm 1 mps 729 mmHg 80%
    07:00 +27°C° 0 mm 1 mps 729 mmHg 73%
    08:00 +28°C° 0 mm 2 mps 730 mmHg 67%
    09:00 +30°C° 0 mm 2 mps 730 mmHg 61%
    10:00 +32°C° 0 mm 2 mps 730 mmHg 52%
    11:00 +35°C° 0 mm 1 mps 730 mmHg 43%
    12:00 +37°C° 0 mm 1 mps 729 mmHg 34%
    13:00 +39°C° 0 mm 1 mps 729 mmHg 31%
    14:00 +39°C° 0 mm 1 mps 728 mmHg 28%
    15:00 +37°C° 0 mm 0 mps 727 mmHg 24%
    16:00 +37°C° 0 mm 1 mps 727 mmHg 27%
    17:00 +35°C° 0 mm 1 mps 727 mmHg 30%
    18:00 +33°C° 0 mm 1 mps 727 mmHg 33%
    19:00 +32°C° 0 mm 1 mps 728 mmHg 37%
    20:00 +31°C° 0 mm 2 mps 728 mmHg 41%
    21:00 +30°C° 0 mm 2 mps 729 mmHg 45%
    22:00 +30°C° 0 mm 2 mps 729 mmHg 52%
    23:00 +29°C° 0 mm 2 mps 729 mmHg 59%

    Day after tomorrow, 18 December, Monday

    Time Temperature Precipitation Wind Pressure Humidity
    00:00 +28°C° 0 mm 3 mps 729 mmHg 66%
    01:00 +27°C° 0 mm 2 mps 729 mmHg 71%
    02:00 +27°C° 0 mm 2 mps 728 mmHg 75%
    03:00 +26°C° 0 mm 2 mps 728 mmHg 80%
    04:00 +26°C° 0 mm 2 mps 728 mmHg 82%
    05:00 +25°C° 0 mm 2 mps 728 mmHg 85%
    06:00 +25°C° 0 mm 1 mps 729 mmHg 87%
    07:00 +26°C° 0 mm 1 mps 729 mmHg 80%
    08:00 +28°C° 0 mm 2 mps 730 mmHg 74%
    09:00 +29°C° 0 mm 2 mps 730 mmHg 67%
    10:00 +31°C° 0 mm 2 mps 730 mmHg 58%
    11:00 +34°C° 0 mm 2 mps 730 mmHg 50%
    12:00 +36°C° 0 mm 2 mps 729 mmHg 41%
    13:00 +37°C° 0 mm 2 mps 728 mmHg 37%
    14:00 +37°C° 0 mm 1 mps 727 mmHg 32%
    15:00 +39°C° 0 mm 1 mps 726 mmHg 28%
    16:00 +37°C° 0 mm 1 mps 726 mmHg 31%
    17:00 +35°C° 0 mm 1 mps 726 mmHg 33%
    18:00 +34°C° 0 mm 1 mps 726 mmHg 36%
    19:00 +34°C° 0 mm 2 mps 727 mmHg 38%
    20:00 +32°C° 0 mm 2 mps 728 mmHg 41%
    21:00 +31°C° 0 mm 2 mps 728 mmHg 43%
    22:00 +30°C° 0.1 mm 2 mps 728 mmHg 52%
    23:00 +29°C° 0.1 mm 3 mps 728 mmHg 61%

    19 December, Tuesday

    Time Temperature Precipitation Wind Pressure Humidity
    00:00 +28°C° 0.1 mm 3 mps 728 mmHg 70%
    01:00 +27°C° 0.8 mm 3 mps 728 mmHg 75%
    02:00 +27°C° 0.8 mm 3 mps 728 mmHg 80%
    03:00 +26°C° 0.8 mm 2 mps 727 mmHg 85%
    04:00 +26°C° 0.2 mm 2 mps 728 mmHg 85%
    05:00 +26°C° 0.2 mm 2 mps 728 mmHg 86%
    06:00 +25°C° 0.2 mm 2 mps 728 mmHg 87%
    07:00 +26°C° 0.4 mm 2 mps 729 mmHg 81%
    08:00 +28°C° 0.4 mm 3 mps 729 mmHg 76%
    09:00 +29°C° 0.4 mm 3 mps 730 mmHg 71%
    10:00 +30°C° 0 mm 3 mps 729 mmHg 63%
    11:00 +33°C° 0 mm 3 mps 729 mmHg 56%
    12:00 +35°C° 0 mm 3 mps 729 mmHg 49%
    13:00 +35°C° 0 mm 2 mps 728 mmHg 46%
    14:00 +36°C° 0 mm 2 mps 727 mmHg 43%
    15:00 +36°C° 0 mm 1 mps 726 mmHg 39%
    16:00 +34°C° 0 mm 1 mps 726 mmHg 42%
    17:00 +33°C° 0 mm 1 mps 726 mmHg 44%
    18:00 +32°C° 0 mm 1 mps 727 mmHg 47%
    19:00 +31°C° 0.1 mm 2 mps 727 mmHg 52%
    20:00 +30°C° 0.1 mm 2 mps 728 mmHg 58%
    21:00 +29°C° 0.1 mm 3 mps 728 mmHg 63%
    22:00 +28°C° 0.1 mm 3 mps 728 mmHg 68%
    23:00 +27°C° 0.1 mm 3 mps 728 mmHg 73%

    20 December, Wednesday

    Time Temperature Precipitation Wind Pressure Humidity
    00:00 +27°C° 0.1 mm 3 mps 728 mmHg 79%
    01:00 +26°C° 0 mm 3 mps 728 mmHg 81%
    02:00 +26°C° 0 mm 3 mps 728 mmHg 83%
    03:00 +25°C° 0 mm 2 mps 727 mmHg 85%
    04:00 +25°C° 0 mm 2 mps 727 mmHg 86%
    05:00 +25°C° 0 mm 2 mps 728 mmHg 87%
    06:00 +25°C° 0 mm 1 mps 728 mmHg 88%
    07:00 +26°C° 0 mm 1 mps 728 mmHg 83%
    08:00 +27°C° 0 mm 2 mps 729 mmHg 78%
    09:00 +28°C° 0 mm 2 mps 730 mmHg 73%
    10:00 +30°C° 0 mm 2 mps 729 mmHg 65%
    11:00 +31°C° 0 mm 2 mps 729 mmHg 58%
    12:00 +34°C° 0 mm 2 mps 729 mmHg 50%
    13:00 +35°C° 0 mm 2 mps 728 mmHg 48%
    14:00 +35°C° 0 mm 2 mps 727 mmHg 46%
    15:00 +35°C° 0 mm 2 mps 727 mmHg 44%
    16:00 +33°C° 0 mm 1 mps 727 mmHg 46%
    17:00 +33°C° 0 mm 1 mps 727 mmHg 49%
    18:00 +32°C° 0 mm 1 mps 727 mmHg 51%
    19:00 +31°C° 0.2 mm 1 mps 728 mmHg 55%
    20:00 +30°C° 0.2 mm 1 mps 728 mmHg 59%
    21:00 +29°C° 0.2 mm 2 mps 729 mmHg 64%
    22:00 +28°C° 0.1 mm 2 mps 729 mmHg 68%
    23:00 +27°C° 0.1 mm 2 mps 728 mmHg 72%

    21 December, Thursday

    Time Temperature Precipitation Wind Pressure Humidity
    00:00 +27°C° 0.1 mm 2 mps 728 mmHg 76%
    01:00 +26°C° 0 mm 2 mps 728 mmHg 79%
    02:00 +26°C° 0 mm 2 mps 728 mmHg 82%
    03:00 +25°C° 0 mm 2 mps 727 mmHg 85%
    04:00 +25°C° 0.2 mm 1 mps 728 mmHg 87%
    05:00 +25°C° 0.2 mm 1 mps 728 mmHg 89%
    06:00 +24°C° 0.2 mm 1 mps 728 mmHg 91%
    07:00 +26°C° 0.4 mm 1 mps 729 mmHg 83%
    08:00 +27°C° 0.4 mm 1 mps 729 mmHg 76%
    09:00 +29°C° 0.4 mm 2 mps 730 mmHg 68%
    10:00 +31°C° 0.5 mm 1 mps 730 mmHg 59%
    11:00 +34°C° 0.5 mm 1 mps 730 mmHg 49%
    12:00 +35°C° 0.5 mm 0 mps 730 mmHg 40%
    13:00 +34°C° 0 mm 0 mps 729 mmHg 40%
    14:00 +33°C° 0 mm 0 mps 728 mmHg 41%
    15:00 +33°C° 0 mm 0 mps 727 mmHg 41%
    16:00 +32°C° 0 mm 0 mps 728 mmHg 43%
    17:00 +33°C° 0 mm 1 mps 728 mmHg 45%
    18:00 +32°C° 0 mm 1 mps 728 mmHg 47%
    19:00 +31°C° 0.1 mm 1 mps 729 mmHg 53%
    20:00 +30°C° 0.1 mm 2 mps 729 mmHg 58%
    21:00 +29°C° 0.1 mm 2 mps 729 mmHg 63%
    22:00 +28°C° 0 mm 2 mps 729 mmHg 67%
    23:00 +27°C° 0 mm 2 mps 729 mmHg 71%
    Show more